Location: Holenberg
(51.9101°N, 9.5853°E)
Time: 04:11:41
(UTC+00:00)

Daily predictions for brighter satellites

Satellite Brightness Start Highest point End
(mag) Time Altitude Azimuth Time Altitude Azimuth Time Altitude Azimuth
Resurs 1-4 Rocket 4.1 00:00:13 10° NE 00:03:39 17° E 00:04:50 16° ESE
Cosmos 2360 Rocket 2.9 00:09:55 40° ESE 00:09:55 40° ESE 00:14:59 10° NE
Aureole 3 Rocket 3.8 00:05:32 10° N 00:10:25 53° NE 00:10:25 53° NE
Cosmos 2263 Rocket 4.1 00:08:22 10° WNW 00:10:39 17° W 00:10:39 17° W
Lacrosse 4 Rocket 2.5 00:15:03 40° NNE 00:15:03 40° NNE 00:17:43 10° NE
Cosmos 1814 Rocket 4.3 00:14:30 57° WNW 00:14:30 57° WNW 00:19:34 10° NNE
NOSS 3-4 (A) 4.5 00:16:26 28° ESE 00:16:26 28° ESE 00:21:07 10° ENE
NOSS 3-4 (C) 4.5 00:16:29 28° ESE 00:16:29 28° ESE 00:21:10 10° ENE
Cosmos 2278 Rocket 4.4 00:11:45 10° NNW 00:16:21 24° NE 00:20:55 10° E
Cosmos 1570 Rocket 4.0 00:17:04 73° ENE 00:17:04 73° ENE 00:22:00 10° NNE
USA 32 4.1 00:17:38 67° E 00:17:38 67° E 00:22:49 10° N
Cosmos 1812 4.5 00:19:32 27° NNW 00:19:32 27° NNW 00:21:26 10° N
Cosmos 2322 Rocket 2.3 00:19:32 59° ESE 00:19:32 59° ESE 00:25:01 10° NE
Cosmos 2034 Rocket 3.8 00:18:36 10° NNW 00:24:48 77° W 00:25:21 72° SW
IDEFIX/ARIANE 42P 3.9 00:20:27 10° NE 00:24:57 29° E 00:25:44 27° ESE
NOSS 3-2 (C) 4.1 00:18:28 10° NW 00:25:40 57° SW 00:26:40 54° SSW
ATLAS 3B R/B 4.5 00:19:15 10° WNW 00:26:01 34° N 00:33:00 10° ENE
Cosmos 1933 4.4 00:27:42 41° NE 00:27:42 41° NE 00:30:31 10° NNE
Cosmos 2219 Rocket 3.4 00:27:22 29° ESE 00:27:48 30° ESE 00:32:35 10° NE
Cosmos 2058 Rocket 4.3 00:32:03 33° NW 00:32:03 33° NW 00:35:19 10° N
Cosmos 1844 3.9 00:28:42 10° NW 00:33:46 55° W 00:33:46 55° W
Cosmos 1782 3.8 00:36:00 42° N 00:36:00 42° N 00:38:40 10° N
SL-16 R/B 2.1 00:35:17 72° WSW 00:35:44 78° WNW 00:41:27 10° NNE
Cosmos 1812 Rocket 3.8 00:41:41 67° N 00:41:41 67° N 00:45:35 10° N
H-2A R/B 4.0 00:38:47 10° NNW 00:41:37 19° NW 00:41:37 19° NW
USA 267 3.3 00:42:48 53° SW 00:42:48 53° SW 00:48:47 10° WNW
GEOS 3 Rocket 4.0 00:49:53 51° W 00:49:53 51° W 00:54:13 10° NW
Meteor 1-26 Rocket 4.4 00:48:58 54° SE 00:49:57 64° E 00:55:42 10° NNE
Cosmos 1634 Rocket 3.9 00:44:12 10° N 00:50:33 90° E 00:52:05 55° S
ADEOS II 3.7 00:46:53 10° NE 00:51:16 26° E 00:53:12 21° SE
Timation 2 Rocket 4.1 00:46:06 10° NW 00:52:37 57° WSW 00:53:00 56° SW
Meteor 2-16 Rocket 4.4 00:52:36 61° SW 00:53:34 71° WNW 00:59:42 10° N
Nimbus 7 Rocket 4.5 00:48:17 10° NNE 00:54:04 62° WNW 00:55:02 54° WSW
Cosmos 1726 4.4 00:52:00 10° NNE 00:54:04 16° ENE 00:54:44 15° E
Cosmos 2278 4.3 00:54:34 41° W 00:55:46 47° NW 01:01:15 10° NNE
SL-16 R/B 3.5 00:51:34 10° SE 00:57:20 45° ENE 01:03:13 10° N
ATLAS 5 CENTAUR R/B 4.1 00:54:15 10° NW 00:57:35 22° NNE 01:01:25 10° ENE
Cosmos 1844 Rocket 3.7 00:54:20 10° NW 00:58:03 30° W 00:58:03 30° W
Cosmos 1980 Rocket 4.1 00:57:36 15° WNW 01:00:40 23° NW 01:05:06 10° NNE
CZ-2D R/B 2.9 00:57:44 10° NNE 01:02:52 45° E 01:04:21 36° SE
Meteor 1-5 Rocket 4.2 00:57:54 10° NNW 01:03:36 66° W 01:04:15 61° SW
Cosmos 2084 4.3 01:04:31 37° NNW 01:04:32 37° NNW 01:08:08 10° NE
Cosmos 2208 Rocket 4.3 01:09:23 53° W 01:10:11 58° WNW 01:15:35 10° NNE
MOZ.5/SAFIR/RUBIN 5/SL-8 4.2 01:12:10 48° WNW 01:12:10 48° WNW 01:16:14 10° NNW
Cosmos 1900 4.3 01:07:50 10° NW 01:12:58 89° SW 01:14:28 47° SE
Cosmos-2242 4.2 01:14:26 30° WNW 01:14:26 30° WNW 01:17:46 10° N
Cosmos 1842 Rocket 4.5 01:13:45 37° ESE 01:14:38 41° E 01:18:50 10° NNE
Cosmos 1943 Rocket 3.9 01:12:29 10° NNW 01:17:35 33° NE 01:22:40 10° ESE
Cosmos 1378 4.0 01:23:31 39° NNW 01:23:31 39° NNW 01:25:51 10° N
COSMOS 2428 3.6 01:22:41 30° SSE 01:24:43 40° ESE 01:29:59 10° NE
USA 238 DEB 4.2 01:18:05 10° NW 01:24:55 43° WSW 01:26:01 41° SW
USA 238 4.2 01:18:10 10° NW 01:25:02 44° WSW 01:26:14 41° SW
IRIDIUM 104 4.3 01:20:14 10° N 01:25:30 79° E 01:27:10 44° SSE
Meteor 1-11 Rocket 4.3 01:23:40 10° N 01:29:11 53° ENE 01:34:01 13° SSE
Cosmos 2237 Rocket 4.2 01:29:23 11° SE 01:33:08 21° E 01:37:12 10° NE
CZ-2C R/B 2.6 01:31:22 41° S 01:33:23 83° WSW 01:38:48 10° NNW
IRIDIUM 114 4.2 01:29:24 10° N 01:34:39 88° W 01:36:18 46° S
NOSS 2-2 (C) 4.3 01:32:05 10° NW 01:36:02 56° NE 01:41:25 10° ESE
Cosmos 1867 3.5 01:30:34 10° NW 01:36:06 86° SW 01:41:35 10° SE
BREEZE-M DEB (TANK) 4.2 01:37:59 13° ESE 01:37:59 13° ESE 01:38:21 10° E
CZ-2C R/B 3.6 01:32:06 10° NNE 01:37:03 53° E 01:39:24 30° SSE
NPP 3.6 01:32:30 10° NNE 01:37:55 82° WNW 01:39:31 48° SSW
AQUA 4.5 01:34:23 10° NNE 01:39:00 49° E 01:40:52 31° SSE
Tsikada Rocket 4.5 01:37:57 37° WSW 01:39:38 45° WNW 01:45:33 10° N
Cosmos 2221 2.6 01:40:19 54° W 01:40:27 54° WNW 01:44:38 10° N
Cosmos 2322 4.0 01:38:31 38° S 01:40:34 62° ESE 01:46:14 10° NE
Cosmos 2279 Rocket 4.0 01:34:44 10° NNW 01:40:53 61° W 01:42:58 40° SSW
IRIDIUM 103 4.2 01:38:34 10° N 01:43:48 76° W 01:45:25 45° SSW
Cosmos 2333 4.2 01:42:17 44° WSW 01:43:58 68° NW 01:49:36 10° NNE
Resurs 1-4 Rocket 2.0 01:38:49 10° NNE 01:44:10 86° WNW 01:45:54 44° SSW
Cosmos 1766 Rocket 4.2 01:41:18 10° NNW 01:44:56 39° WNW 01:44:56 39° WNW
Lacrosse 5 1.8 01:44:47 50° SW 01:46:09 86° SSE 01:51:18 10° ENE
COSMOS 2441 4.4 01:41:19 10° NNE 01:46:15 75° ESE 01:47:56 41° S
ALOS 3.3 01:43:39 10° NNE 01:48:01 39° E 01:50:36 21° SSE
Cosmos 2333 Rocket 2.5 01:46:53 38° WSW 01:48:47 55° NW 01:54:22 10° NNE
USA 215 3.4 01:42:29 10° ENE 01:49:00 70° NNW 01:53:22 23° W
Nadezhda 4 Rocket 4.2 01:45:46 25° S 01:49:22 67° E 01:55:27 10° NNE
Cosmos 44 Rocket 3.4 01:48:57 47° SSW 01:50:28 81° SE 01:55:39 10° NE
Lacrosse 4 Rocket 3.5 01:50:59 14° WNW 01:52:39 17° NNW 01:55:24 10° NNE
Cosmos 972 Rocket 4.0 01:51:40 43° SW 01:53:31 78° WNW 01:58:38 10° NNE
Cosmos 2360 Rocket 2.8 01:51:39 32° W 01:53:43 45° NW 01:59:09 10° NNE
Cosmos 1743 3.7 01:51:33 10° NNW 01:54:05 31° WNW 01:54:05 31° WNW
Cosmos 1733 4.5 01:53:15 10° N 01:56:38 37° ENE 01:59:43 12° SE
Sich 1 3.4 01:54:00 10° N 01:58:12 60° ENE 02:01:15 18° SSE
BlueWalker 3 1.7 01:58:05 60° W 01:58:43 79° SSW 02:02:32 10° ESE
SAR-Lupe-1 4.3 01:56:50 10° NNE 02:00:26 63° ESE 02:01:17 46° SSE
Cosmos 2278 Rocket 2.2 01:55:32 10° NNW 02:01:16 86° ENE 02:06:57 10° SSE
Cosmos 2344 4.0 01:53:38 10° NW 02:01:49 80° SW 02:13:05 10° SE
IRIDIUM 106 4.5 01:56:58 10° NNW 02:02:04 55° W 02:03:43 38° SW
Cosmos 2322 Rocket 3.3 02:01:19 23° W 02:03:51 34° NW 02:08:57 10° NNE
IDEFIX/ARIANE 42P 2.9 01:59:42 10° N 02:04:42 51° WNW 02:06:30 35° WSW
Cosmos 1743 Rocket 3.7 02:01:50 10° N 02:06:10 70° ENE 02:09:29 17° SSE
NOSS 3-4 (A) 3.4 02:03:50 34° WSW 02:06:25 72° NW 02:12:40 10° NE
NOSS 3-4 (C) 3.4 02:03:53 34° WSW 02:06:28 72° NW 02:12:44 10° NE
Cosmos 1536 2.6 02:06:09 10° NNW 02:10:03 70° W 02:11:04 46° SSW
Cosmos 1538 Rocket 4.2 02:07:18 29° S 02:10:04 70° ESE 02:15:24 10° NNE
Okean 3 Rocket 4.1 02:06:06 10° NNW 02:10:21 40° W 02:10:57 38° WSW
Cosmos 2219 Rocket 2.4 02:09:03 33° WSW 02:11:26 58° NW 02:16:59 10° NNE
MSX 4.0 02:05:50 10° N 02:11:31 57° WNW 02:14:09 31° SW
SAR-Lupe-4 3.4 02:07:57 10° NNE 02:11:32 88° ESE 02:12:23 50° SSW
Cosmos 192 4.2 02:07:01 10° NNW 02:11:58 87° WSW 02:16:51 10° SSE
NOSS 2-3 (C) 4.4 02:06:36 10° NW 02:12:04 82° SW 02:19:36 10° SE
Gbstr 26 Del rocket 3.3 02:13:50 39° SSW 02:14:43 46° SSE 02:18:25 10° E
Meteor 2-10 4.3 02:10:22 10° NNW 02:15:59 81° ENE 02:21:42 10° SSE
NOSS 2-3 (D) 4.4 02:11:46 10° NW 02:17:13 81° SW 02:24:40 10° SE
COBE Rocket 4.1 02:12:55 10° N 02:17:28 49° WNW 02:19:04 34° WSW
GP-B 3.0 02:13:44 10° N 02:18:11 86° W 02:20:36 27° S
ATLAS 3B R/B 4.1 02:11:19 10° NW 02:18:38 44° NNE 02:26:04 10° E
Meteor 1-28 Rocket 3.6 02:20:07 39° W 02:20:08 39° W 02:23:36 10° NNW
SL-16 R/B 3.9 02:17:07 13° W 02:20:47 22° NW 02:25:11 10° NNE
NOSS 7 (E) 4.2 02:20:29 10° NW 02:23:33 84° NE 02:27:01 10° SE
NOSS 2-2 (E) 3.9 02:20:15 10° NW 02:24:31 58° SW 02:30:30 10° SSE
Cosmos 1726 2.4 02:24:44 10° NNW 02:27:31 37° W 02:27:31 37° W
BREEZE-M DEB (TANK) 3.4 02:27:07 32° WSW 02:28:42 67° S 02:37:59 10° E
CZ-2C R/B 3.8 02:25:58 10° NNE 02:30:47 38° E 02:35:36 10° SSE
ADEOS II 2.3 02:26:05 10° N 02:31:14 57° WNW 02:34:05 26° SW
Okean 1 3.1 02:29:45 31° SSW 02:31:29 81° W 02:35:19 10° N
Cosmos 1092 Rocket 4.1 02:26:22 11° S 02:32:11 74° E 02:38:21 10° NNE
FENGYUN 3A 3.8 02:28:30 10° N 02:33:53 63° WNW 02:37:11 24° SW
Meteor 1-19 Rocket 4.4 02:30:31 15° S 02:35:32 82° E 02:41:36 10° NNE
Cosmos 1461 2.8 02:34:45 10° NW 02:38:28 45° SW 02:42:06 10° SSE
NOSS 2-2 (D) 3.8 02:34:42 10° NW 02:38:54 60° SW 02:44:45 10° SSE
Cosmos 2026 Rocket 4.1 02:33:58 11° S 02:40:05 83° E 02:46:30 10° NNE
SL-16 R/B 2.9 02:36:39 18° SSW 02:40:59 42° W 02:46:52 10° NNW
Kosmos-1783 3.8 02:42:15 22° ESE 02:42:15 22° ESE 02:43:33 10° ENE
ATLAS 5 CENTAUR R/B 2.8 02:37:53 10° NW 02:42:22 52° NE 02:47:55 10° ESE
CZ-2D R/B 3.0 02:38:00 10° N 02:42:46 35° WNW 02:45:38 21° WSW
RESURS DK-1 2.3 02:41:52 26° SSW 02:44:06 88° ESE 02:48:12 10° NNE
Cosmos 1151 Rocket 3.1 02:40:50 15° S 02:44:18 80° E 02:48:39 10° NNE
Cosmos 923 Rocket 4.4 02:42:05 14° S 02:46:35 64° ESE 02:51:49 10° NNE
Envisat 3.3 02:43:27 10° NNE 02:48:32 66° ESE 02:53:34 10° S
Cosmos 1975 2.7 02:54:56 10° N 02:58:48 87° E 03:02:40 10° S
Cosmos 1371 Rocket 4.0 02:55:42 10° NNW 03:00:58 85° WSW 03:06:15 10° SSE
Cosmos 1943 Rocket 2.2 02:56:06 10° NW 03:01:42 61° WSW 03:07:16 10° SSE
Meteor 1-27 Rocket 3.8 02:56:58 14° SSW 03:01:54 63° WNW 03:07:34 10° N
Cosmos 1340 2.4 02:59:06 10° NNW 03:02:33 82° ENE 03:05:59 10° SSE
Thor Agena Rocket 3.9 02:59:48 10° NNE 03:04:50 65° ESE 03:09:51 10° S
ATLAS 2AS CENTAUR R/B 3.9 02:59:26 10° S 03:06:12 40° ESE 03:12:46 10° NE
Meteor 2-4 Rocket 3.9 03:02:10 10° S 03:07:32 71° E 03:13:04 10° NNE
NOAA 11 4.3 03:02:31 10° NNE 03:08:00 79° ESE 03:13:28 10° SSW
H-2A R/B 4.0 03:04:03 10° NE 03:08:18 27° E 03:12:36 10° SSE
CZ-4 R/B 3.8 03:03:58 10° NNE 03:08:46 74° WNW 03:13:27 10° SSW
COSMOS 2428 3.2 03:04:40 17° WSW 03:08:54 47° NW 03:14:24 10° NNE
Cosmos 1805 Rocket 4.5 03:05:17 10° NNW 03:09:01 29° W 03:11:53 15° SW
Cosmos 2297 4.4 03:05:06 10° NNW 03:10:49 59° NE 03:16:29 10° SE
Cosmos 1626 3.2 03:08:30 10° SSE 03:11:37 40° E 03:14:45 10° NNE
Cosmos 1666 Rocket 3.5 03:08:21 10° NNW 03:12:48 69° W 03:17:13 10° S
CZ-2C R/B 4.3 03:12:51 14° WSW 03:14:27 15° W 03:17:31 10° NW
Cosmos 2237 Rocket 2.2 03:11:13 12° SSW 03:16:30 82° WNW 03:22:15 10° NNE
CZ-2C R/B 4.1 03:12:26 10° N 03:16:41 28° WNW 03:20:26 13° WSW
Cosmos 1980 3.7 03:12:32 12° SW 03:17:46 77° WNW 03:23:27 10° NNE
Cosmos 2369 Rocket 3.1 03:14:24 10° NNW 03:19:56 53° NE 03:25:24 10° SE
Intercosmos 25 Rocket 3.3 03:16:45 10° NNW 03:19:58 55° W 03:24:12 10° S
S3M 4.4 03:15:02 10° N 03:21:11 70° ENE 03:27:22 10° SSE
Resurs 1-4 Rocket 3.8 03:19:42 10° N 03:23:15 18° NW 03:26:47 10° W
NOSS 3-1 (A) 4.4 03:16:56 10° NW 03:23:47 68° NE 03:32:15 10° ESE
ALOS 3.2 03:21:04 10° N 03:25:10 32° WNW 03:28:56 12° SW
Cosmos 2112 Rocket 4.1 03:20:47 10° SSW 03:26:07 84° ESE 03:31:31 10° NNE
Lacrosse 5 2.6 03:24:30 10° W 03:29:29 50° N 03:34:28 10° ENE
DMSP B5D2-2 4.1 03:24:29 10° S 03:29:38 64° WSW 03:34:50 10° NNW
USA 215 3.8 03:25:18 10° E 03:31:41 58° N 03:38:05 10° WNW
Cosmos 2333 Rocket 4.1 03:30:33 10° WNW 03:34:22 18° NNW 03:38:12 10° NNE
Cosmos 2266 Rocket 4.4 03:29:25 10° S 03:35:25 66° E 03:41:25 10° NNE
YAOGAN 6 2.4 03:32:31 10° N 03:35:44 57° WNW 03:38:57 10° SSW
IRS-1D 3.5 03:31:31 10° NNE 03:36:35 76° WNW 03:41:44 10° SSW
BlueWalker 3 3.0 03:33:26 10° W 03:36:35 24° SW 03:39:43 10° SSE
Cosmos 2360 Rocket 4.3 03:35:49 10° WNW 03:39:13 16° NNW 03:42:39 10° NNE
NOSS 0 Rocket 4.4 03:36:22 10° WSW 03:42:20 49° NW 03:48:19 10° NNE
USA 290 2.0 03:41:11 10° NNW 03:44:16 68° WSW 03:47:19 10° SSE
Cosmos 2278 Rocket 3.5 03:40:43 10° WNW 03:44:37 19° W 03:48:31 10° SW
Cosmos 1328 Rocket 3.7 03:42:33 10° SSW 03:46:54 57° WNW 03:51:17 10° N
Cosmos 2315 Rocket 4.3 03:41:04 10° N 03:47:18 74° ENE 03:53:29 10° SSE
NOSS 3-1 (C) 4.1 03:40:30 10° NW 03:47:36 69° SW 03:56:18 10° SSE
Cosmos 1340 Rocket 3.3 03:44:05 10° SW 03:47:43 40° WNW 03:51:26 10° N
Cosmos 2322 Rocket 4.4 03:47:03 10° NW 03:49:44 13° NNW 03:52:25 10° N
Cosmos 1805 4.4 03:47:12 10° NW 03:50:05 22° W 03:52:59 10° SW
Cosmos 1633 Rocket 3.7 03:47:01 10° NNW 03:50:58 35° W 03:54:55 10° SSW
Cosmos 1680 Rocket 3.8 03:48:11 10° SW 03:53:24 56° WNW 03:58:40 10° NNE
Cosmos 1553 Rocket 4.4 03:47:51 10° NNW 03:53:46 44° W 03:59:34 10° SSW
ARIANE 5 R/B 4.4 03:51:45 10° NNE 03:56:32 35° E 04:01:17 10° SSE
Cosmos 2219 Rocket 4.0 03:52:47 10° WNW 03:56:36 18° NNW 04:00:27 10° NNE
